Showing default

KINEIS-5D, 62082

Orbit data source: Space-Track

KINEIS-5D, 62082 is a French payload satellite in SSO that was launched on Mon, 25 Nov 2024 UTC via an ELECTRON launch vehicle from the Rocket Lab Launch Complex (RLLC). Payload-class satellites include a variety of spacecraft equipped with specific instruments for various scientific and technological missions. These include communications satellites like Starlink; space stations such as the ISS; scientific satellites like the Hubble; Earth observation satellites from companies like Planet Labs, Umbra, and HawkEye 360; GPS; miniature CubeSats for education and research; and military/defense satellites.

Loading next visibility...
Identifier
62082, 2024-219B
Orbit
SSO
Country
Flag of FRFR
Related business
Manufacturer
KINEIS
Mission
Operational Commercial Communications
Bus & Motor
CUBESAT 16U, Unknown motor
Mass
28 kg wet, 28 kg dry
Launch date (UTC)
2024-11-25 (1 year ago)
Launch vehicle
ELECTRON
Launch site
Rocket Lab Launch Complex (RLLC)
Object type
Payload
Rocket body
Debris
Shape & HBR
Box + 2 Pan + 1 Ant, 1.0 m
Radar Cross Section
0.229 m², Medium (>0.1 m² and < 1m²)

Expand to show TLE details & history
Last TLE update: 7 hours ago

TLE from 7 hours ago
0 KINEIS-5D
1 62082U 24219B   25343.20945171  .00001499  00000-0  24458-3 0  9991
2 62082  97.9855 141.3199 0000928 198.8669 161.2504 14.72361714 55800
Epoch: 2025-12-09T05:01Z
TLE epoch observation values (Epoch: 2025-12-09T05:01:36.627Z)
Latitude
-0.00006°
Longitude
-12.28012°
Altitude
657.165 km
Speed
7.529 km/s
True Right ascension
09h 25m 16s
True Declination
0° 00' 00"
Sunlit
Object was in daylight at epoch
Visualization orbit readout
Latitude
Unknown
Longitude
Unknown
Altitude
Unknown
Speed
Unknown
Apparent Right ascension
Unknown
Apparent Declination
Unknown
Sunlit
N/A
Visualization observer readout
Local Sidereal Time
10:05:15
Azimuth
Unknown
Elevation
Unknown
Doppler factor
Unknown
Orbital elements
Apogee altitude
651.246 km
Perigee altitude
649.941 km
Semi-major axis
7,028.731 km
Eccentricity
0.00009
Inclination
97.9855°
RAAN
141.3199°
Arg. of periapsis
198.8669°
True anomaly
161.25382°
Mean anomaly
161.2504°
Eccentric anomaly
161.25211°
Mean motion
3.68322 °/min
Orbital period
97.74 mins
BSTAR
0.00024458
Loading maneuver chart data...
Computing Atmospheric mass density...
Loading historical data...
Loading historical data...
Loading historical data...
Loading historical data...
Loading historical data...
Loading historical data...
Loading historical data...

Documentation

Showing up to 5 results
|